Weather History for Prescott, AZ

Change the Weather History Date:

Friday, October 5, 2012

  Actual Average Record
Temperature  
Mean Temperature 64 °F 60 °F  
Max Temperature 80 °F 75 °F 91 °F (1979)
Min Temperature 48 °F 46 °F 27 °F (1969)
Degree Days  
Heating Degree Days 1    
Month to date heating degree days  
Since 1 July heating degree days  
Cooling Degree Days 0    
Month to date cooling degree days  
Year to date cooling degree days  
Growing Degree Days 14 (Base 50)    
Moisture  
Dew Point 29 °F    
Average Humidity 29    
Maximum Humidity 50    
Minimum Humidity 14    
Precipitation  
Precipitation 0.00 in 0.04 in 0.55 in (1983)
Month to date precipitation 0.18  
Year to date precipitation 11.35  
Sea Level Pressure  
Sea Level Pressure 29.96 in    
Wind  
Wind Speed 7 mph (SSW)    
Max Wind Speed 15 mph    
Max Gust Speed 23 mph    
Visibility 10 miles    
Events      
T = Trace of Precipitation, MM = Missing Value Source: NWS Daily Summary

Daily Weather History Graph

Daily Weather History Graph

Search for Another Location

Airport:

Trip Planner

Search our weather history database for the weather conditions in past years. The results will help you decide how hot, cold, wet, or windy it might be!

Date:

Astronomy

Oct. 05, 2012 Rise Set
Actual Time 6:27 AM MST 6:07 PM MST
Civil Twilight 6:02 AM MST 6:32 PM MST
Nautical Twilight 5:33 AM MST 7:01 PM MST
Astronomical Twilight 5:04 AM MST 7:30 PM MST
Moon 9:45 PM MST (10/5) 11:27 AM MST (10/5)
Length of Visible Light 12h 29m
Length of Day
11h 39m
Waning Gibbous, 73% of the Moon is Illuminated
Oct 5
Waning Gibbous
Oct 8
Last Quarter
Oct 15
New
Oct 21
First Quarter
Oct 29
Full

Hourly Weather History & Observations

Time (MST) Temp. Dew Point Humidity Pressure Visibility Wind Dir Wind Speed Gust Speed Precip Events Conditions
1:53 AM 54.0 °F 30.9 °F 41% 29.99 in 10.0 mi South 8.1 mph - N/A   Clear
2:53 AM 50.0 °F 30.9 °F 48% 29.99 in 10.0 mi SSW 4.6 mph - N/A   Clear
3:53 AM 51.1 °F 28.9 °F 43% 29.98 in 10.0 mi SSW 5.8 mph - N/A   Clear
4:53 AM 52.0 °F 28.9 °F 41% 29.97 in 10.0 mi South 8.1 mph - N/A   Clear
5:53 AM 48.9 °F 30.9 °F 50% 30.01 in 10.0 mi SSE 5.8 mph - N/A   Clear
6:53 AM 50.0 °F 30.9 °F 48% 30.03 in 10.0 mi SSW 9.2 mph - N/A   Clear
7:53 AM 59.0 °F 32.0 °F 36% 30.03 in 10.0 mi South 3.5 mph - N/A   Clear
8:53 AM 69.1 °F 30.0 °F 23% 30.01 in 10.0 mi SSE 4.6 mph - N/A   Clear
10:53 AM 75.0 °F 27.0 °F 17% 30.01 in 10.0 mi Variable 3.5 mph - N/A   Clear
11:53 AM 78.1 °F 25.0 °F 14% 29.97 in 10.0 mi Variable 3.5 mph - N/A   Clear
12:53 PM 78.1 °F 25.0 °F 14% 29.96 in 10.0 mi SSE 8.1 mph - N/A   Clear
1:53 PM 79.0 °F 25.0 °F 14% 29.93 in 10.0 mi Variable 3.5 mph - N/A   Clear
2:53 PM 80.1 °F 26.1 °F 14% 29.92 in 10.0 mi WSW 13.8 mph 21.9 mph N/A   Clear
3:53 PM 78.1 °F 25.0 °F 14% 29.92 in 10.0 mi WSW 13.8 mph 17.3 mph N/A   Clear
4:53 PM 75.9 °F 26.1 °F 16% 29.92 in 10.0 mi WSW 15.0 mph 23.0 mph N/A   Clear
5:53 PM 73.0 °F 27.0 °F 18% 29.94 in 10.0 mi SW 10.4 mph - N/A   Clear
6:53 PM 69.1 °F 30.0 °F 23% 29.95 in 10.0 mi SSW 5.8 mph - N/A   Clear
7:53 PM 66.0 °F 28.9 °F 25% 29.94 in 10.0 mi SSW 8.1 mph - N/A   Clear
8:53 PM 64.0 °F 30.9 °F 29% 29.91 in 10.0 mi SSW 6.9 mph - N/A   Clear
9:53 PM 62.1 °F 30.9 °F 31% 29.91 in 10.0 mi SSW 6.9 mph - N/A   Clear
10:53 PM 61.0 °F 33.1 °F 35% 29.91 in 10.0 mi SSW 6.9 mph - N/A   Clear
11:53 PM 60.1 °F 33.1 °F 36% 29.90 in 10.0 mi South 6.9 mph - N/A   Clear